| time (UTC) | temp C | wind direction | speed KPH | gust KPH | rain 1hr cm | rain 24hr cm | rain mn cm | humidity % | barometer mb |
| 20260510120308 | 20 | 212 | 4.8 | 16.1 | 0.00 | 0.00 | 0.00 | 82 | 1029.6 |
| 20260510115305 | 20 | 201 | 4.8 | 19.3 | 0.00 | 0.00 | 0.00 | 81 | 1029.7 |
| 20260510114242 | 20 | 233 | 6.4 | 20.9 | 0.00 | 0.00 | 0.00 | 80 | 1029.6 |
| 20260510113217 | 20 | 203 | 8.0 | 24.1 | 0.00 | 0.00 | 0.00 | 80 | 1029.6 |
| 20260510112151 | 20 | 180 | 11.3 | 20.9 | 0.00 | 0.00 | 0.00 | 79 | 1029.6 |
| 20260510110049 | 20 | 195 | 9.7 | 25.7 | 0.00 | 0.00 | 0.00 | 79 | 1029.6 |
| 20260510105023 | 20 | 161 | 9.7 | 22.5 | 0.00 | 0.00 | 0.00 | 79 | 1029.6 |
| 20260510102922 | 20 | 194 | 9.7 | 22.5 | 0.00 | 0.00 | 0.00 | 77 | 1029.6 |
| 20260510101904 | 20 | 180 | 9.7 | 22.5 | 0.00 | 0.00 | 0.00 | 78 | 1029.5 |
| 20260510100842 | 20 | 149 | 11.3 | 19.3 | 0.00 | 0.00 | 0.00 | 79 | 1029.4 |
| 20260510095830 | 20 | 183 | 11.3 | 25.7 | 0.00 | 0.00 | 0.00 | 80 | 1029.3 |
| 20260510094845 | 20 | 146 | 9.7 | 25.7 | 0.00 | 0.00 | 0.00 | 80 | 1029.2 |
| 20260510093824 | 20 | 170 | 9.7 | 24.1 | 0.00 | 0.00 | 0.00 | 81 | 1029.1 |
| 20260510092842 | 20 | 136 | 12.9 | 24.1 | 0.00 | 0.00 | 0.00 | 81 | 1029.1 |
| 20260510091811 | 20 | 170 | 12.9 | 22.5 | 0.00 | 0.00 | 0.00 | 81 | 1028.9 |
| 20260510085642 | 20 | 207 | 9.7 | 24.1 | 0.00 | 0.00 | 0.00 | 82 | 1028.7 |
| 20260510083526 | 20 | 137 | 12.9 | 24.1 | 0.00 | 0.00 | 0.00 | 82 | 1028.4 |
| 20260510082456 | 20 | 155 | 11.3 | 24.1 | 0.00 | 0.00 | 0.00 | 82 | 1028.2 |
| 20260510081511 | 20 | 126 | 9.7 | 19.3 | 0.00 | 0.00 | 0.00 | 82 | 1028.3 |
| 20260510080534 | 20 | 157 | 9.7 | 24.1 | 0.00 | 0.00 | 0.00 | 82 | 1028.1 |
| 20260510075518 | 20 | 199 | 9.7 | 24.1 | 0.00 | 0.00 | 0.00 | 83 | 1028.0 |
| 20260510074520 | 21 | 173 | 9.7 | 19.3 | 0.00 | 0.00 | 0.00 | 82 | 1028.0 |
| 20260510073508 | 20 | 193 | 9.7 | 20.9 | 0.00 | 0.00 | 0.00 | 82 | 1028.0 |
| 20260510072455 | 20 | 181 | 9.7 | 20.9 | 0.00 | 0.00 | 0.00 | 81 | 1027.9 |
| 20260510071447 | 20 | 179 | 8.0 | 17.7 | 0.00 | 0.00 | 0.00 | 81 | 1027.8 |
| 20260510065334 | 20 | 181 | 9.7 | 25.7 | 0.00 | 0.00 | 0.00 | 82 | 1027.6 |
| 20260510064348 | 20 | 187 | 8.0 | 16.1 | 0.00 | 0.00 | 0.00 | 82 | 1027.5 |
| 20260510063318 | 20 | 177 | 9.7 | 20.9 | 0.00 | 0.00 | 0.00 | 82 | 1027.4 |
| 20260510062255 | 20 | 180 | 9.7 | 20.9 | 0.00 | 0.00 | 0.00 | 81 | 1027.3 |
| 20260510061224 | 20 | 140 | 9.7 | 20.9 | 0.00 | 0.00 | 0.00 | 81 | 1027.2 |
| 20260510060214 | 21 | 188 | 11.3 | 22.5 | 0.00 | 0.00 | 0.00 | 80 | 1027.1 |
| 20260510055234 | 21 | 180 | 9.7 | 22.5 | 0.00 | 0.00 | 0.00 | 79 | 1027.0 |
| 20260510054225 | 21 | 160 | 11.3 | 20.9 | 0.00 | 0.00 | 0.00 | 79 | 1026.9 |
| 20260510053159 | 21 | 207 | 9.7 | 20.9 | 0.00 | 0.00 | 0.00 | 79 | 1026.9 |
| 20260510052133 | 21 | 179 | 9.7 | 20.9 | 0.00 | 0.00 | 0.00 | 78 | 1026.8 |
| 20260510051111 | 21 | 181 | 9.7 | 20.9 | 0.00 | 0.00 | 0.00 | 77 | 1026.8 |
| 20260510050117 | 21 | 139 | 9.7 | 19.3 | 0.00 | 0.00 | 0.00 | 76 | 1026.7 |
| 20260510043941 | 21 | 186 | 9.7 | 19.3 | 0.00 | 0.00 | 0.00 | 73 | 1026.6 |
| 20260510042959 | 21 | 181 | 9.7 | 19.3 | 0.00 | 0.00 | 0.00 | 73 | 1026.6 |
| 20260510042022 | 21 | 113 | 8.0 | 19.3 | 0.00 | 0.00 | 0.00 | 72 | 1026.5 |
| 20260510041046 | 21 | 193 | 8.0 | 16.1 | 0.00 | 0.00 | 0.00 | 72 | 1026.5 |
| 20260510040100 | 21 | 180 | 9.7 | 19.3 | 0.00 | 0.00 | 0.00 | 70 | 1026.6 |
| 20260510035107 | 22 | 180 | 8.0 | 22.5 | 0.00 | 0.00 | 0.00 | 72 | 1026.5 |
| 20260510034042 | 21 | 179 | 9.7 | 22.5 | 0.00 | 0.00 | 0.00 | 71 | 1026.5 |
| 20260510033026 | 21 | 193 | 9.7 | 16.1 | 0.00 | 0.00 | 0.00 | 71 | 1026.5 |
| 20260510032029 | 21 | 219 | 8.0 | 14.5 | 0.00 | 0.00 | 0.00 | 72 | 1026.7 |
| 20260510030956 | 21 | 187 | 8.0 | 16.1 | 0.00 | 0.00 | 0.00 | 71 | 1026.7 |
| 20260510025954 | 21 | 180 | 8.0 | 16.1 | 0.00 | 0.00 | 0.00 | 70 | 1026.8 |
| 20260510024944 | 21 | 146 | 8.0 | 17.7 | 0.00 | 0.00 | 0.00 | 70 | 1026.9 |
| 20260510023933 | 21 | 190 | 6.4 | 17.7 | 0.00 | 0.00 | 0.00 | 71 | 1027.0 |
| 20260510022915 | 21 | 177 | 8.0 | 16.1 | 0.00 | 0.00 | 0.00 | 71 | 1027.1 |
| 20260510021921 | 21 | 148 | 8.0 | 16.1 | 0.00 | 0.00 | 0.00 | 71 | 1027.2 |
| 20260510020911 | 21 | 152 | 8.0 | 16.1 | 0.00 | 0.00 | 0.00 | 68 | 1027.3 |
| 20260510015837 | 21 | 144 | 8.0 | 14.5 | 0.00 | 0.00 | 0.00 | 68 | 1027.4 |
| 20260510014834 | 21 | 134 | 8.0 | 14.5 | 0.00 | 0.00 | 0.00 | 69 | 1027.6 |
| 20260510013812 | 21 | 152 | 6.4 | 12.9 | 0.00 | 0.00 | 0.00 | 70 | 1027.6 |
| 20260510011708 | 21 | 165 | 8.0 | 16.1 | 0.00 | 0.00 | 0.00 | 68 | 1027.8 |
| 20260510010709 | 22 | 157 | 4.8 | 14.5 | 0.00 | 0.00 | 0.00 | 65 | 1027.9 |
| 20260510004449 | 21 | 175 | 6.4 | 12.9 | 0.00 | 0.00 | 0.00 | 69 | 1028.2 |
| 20260510003511 | 21 | 176 | 6.4 | 12.9 | 0.00 | 0.00 | 0.00 | 69 | 1028.2 |
| 20260510002447 | 21 | 168 | 4.8 | 12.9 | 0.00 | 0.00 | 0.00 | 65 | 1028.3 |
| 20260510001425 | 21 | 179 | 3.2 | 6.4 | 0.00 | 0.00 | 0.00 | 68 | 1028.2 |
| 20260510000443 | 22 | 181 | 0.0 | 3.2 | 0.00 | 0.00 | 0.00 | 71 | 1028.1 |
| 20260509235450 | 21 | 0 | 0.0 | 3.2 | 0.00 | 0.00 | 0.00 | 76 | 1028.0 |
| 20260509234458 | 20 | 37 | 0.0 | 4.8 | 0.00 | 0.00 | 0.00 | 78 | 1028.0 |
| 20260509233515 | 19 | 347 | 0.0 | 0.0 | 0.00 | 0.00 | 0.00 | 79 | 1027.9 |
| 20260509232519 | 18 | 30 | 0.0 | 4.8 | 0.00 | 0.00 | 0.00 | 82 | 1027.9 |
| 20260509231540 | 17 | 333 | 1.6 | 4.8 | 0.00 | 0.00 | 0.00 | 83 | 1027.9 |
| 20260509230551 | 16 | 310 | 0.0 | 4.8 | 0.00 | 0.00 | 0.00 | 85 | 1027.9 |
| 20260509225528 | 16 | 335 | 0.0 | 4.8 | 0.00 | 0.00 | 0.00 | 87 | 1027.8 |
| 20260509224530 | 15 | 304 | 0.0 | 6.4 | 0.00 | 0.00 | 0.00 | 88 | 1027.7 |
| 20260509223459 | 15 | 326 | 0.0 | 9.7 | 0.00 | 0.00 | 0.00 | 90 | 1027.8 |
| 20260509222451 | 13 | 315 | 3.2 | 9.7 | 0.00 | 0.00 | 0.00 | 91 | 1027.8 |
| 20260509221511 | 13 | 318 | 3.2 | 11.3 | 0.00 | 0.00 | 0.00 | 91 | 1027.7 |
| 20260509220525 | 12 | 281 | 4.8 | 11.3 | 0.00 | 0.00 | 0.00 | 92 | 1027.7 |
| 20260509215456 | 12 | 312 | 4.8 | 9.7 | 0.00 | 0.00 | 0.00 | 92 | 1027.6 |
| 20260509214446 | 12 | 338 | 4.8 | 9.7 | 0.00 | 0.00 | 0.00 | 92 | 1027.5 |
| 20260509213417 | 11 | 318 | 6.4 | 11.3 | 0.00 | 0.00 | 0.00 | 93 | 1027.4 |
| 20260509212428 | 11 | 335 | 6.4 | 11.3 | 0.00 | 0.00 | 0.00 | 93 | 1027.3 |
| 20260509211452 | 11 | 328 | 6.4 | 9.7 | 0.00 | 0.00 | 0.00 | 93 | 1027.1 |
| 20260509210424 | 11 | 308 | 6.4 | 11.3 | 0.00 | 0.00 | 0.00 | 93 | 1027.1 |
| 20260509205352 | 10 | 315 | 6.4 | 11.3 | 0.00 | 0.00 | 0.00 | 92 | 1027.0 |
| 20260509203247 | 11 | 352 | 3.2 | 8.0 | 0.00 | 0.00 | 0.00 | 91 | 1026.7 |
| 20260509202311 | 11 | 316 | 3.2 | 8.0 | 0.00 | 0.00 | 0.00 | 91 | 1026.6 |
| 20260509201253 | 11 | 318 | 3.2 | 8.0 | 0.00 | 0.00 | 0.00 | 90 | 1026.4 |
| 20260509200234 | 11 | 319 | 1.6 | 6.4 | 0.00 | 0.00 | 0.00 | 90 | 1026.3 |
| 20260509195221 | 11 | 334 | 1.6 | 4.8 | 0.00 | 0.00 | 0.00 | 89 | 1026.3 |
| 20260509194211 | 11 | 341 | 1.6 | 4.8 | 0.00 | 0.00 | 0.00 | 89 | 1026.1 |
| 20260509193232 | 12 | 328 | 1.6 | 4.8 | 0.00 | 0.00 | 0.00 | 88 | 1026.0 |
| 20260509191031 | 12 | 304 | 0.0 | 3.2 | 0.00 | 0.00 | 0.00 | 87 | 1025.7 |
| 20260509190033 | 13 | 314 | 0.0 | 3.2 | 0.00 | 0.00 | 0.00 | 86 | 1025.6 |
| 20260509185031 | 13 | 312 | 0.0 | 3.2 | 0.00 | 0.00 | 0.00 | 85 | 1025.5 |
| 20260509184006 | 14 | 309 | 0.0 | 3.2 | 0.00 | 0.00 | 0.00 | 84 | 1025.4 |
| 20260509182932 | 15 | 282 | 0.0 | 1.6 | 0.00 | 0.00 | 0.00 | 84 | 1025.3 |
| 20260509181942 | 15 | 236 | 1.6 | 8.0 | 0.00 | 0.00 | 0.00 | 85 | 1025.2 |
| 20260509175801 | 15 | 240 | 3.2 | 9.7 | 0.00 | 0.00 | 0.00 | 87 | 1025.0 |
| 20260509174732 | 15 | 257 | 4.8 | 9.7 | 0.00 | 0.00 | 0.00 | 88 | 1025.0 |
| 20260509173721 | 15 | 231 | 4.8 | 9.7 | 0.00 | 0.00 | 0.00 | 89 | 1024.9 |
| 20260509172651 | 14 | 243 | 1.6 | 8.0 | 0.00 | 0.00 | 0.00 | 90 | 1024.9 |
| 20260509171652 | 13 | 265 | 0.0 | 4.8 | 0.00 | 0.00 | 0.00 | 91 | 1024.9 |
| 20260509170714 | 13 | 266 | 0.0 | 4.8 | 0.00 | 0.00 | 0.00 | 92 | 1024.9 |
| 20260509165727 | 12 | 321 | 0.0 | 3.2 | 0.00 | 0.00 | 0.00 | 90 | 1024.9 |
| 20260509164722 | 12 | 321 | 0.0 | 3.2 | 0.00 | 0.00 | 0.00 | 90 | 1024.9 |
| 20260509163653 | 12 | 336 | 0.0 | 1.6 | 0.00 | 0.00 | 0.00 | 89 | 1024.9 |
| 20260509162715 | 13 | 336 | 0.0 | 1.6 | 0.00 | 0.00 | 0.00 | 89 | 1025.0 |
| 20260509161706 | 13 | 335 | 0.0 | 4.8 | 0.00 | 0.00 | 0.00 | 89 | 1025.0 |
| 20260509160642 | 13 | 352 | 0.0 | 4.8 | 0.00 | 0.00 | 0.00 | 89 | 1025.0 |
| 20260509155644 | 13 | 310 | 0.0 | 4.8 | 0.00 | 0.00 | 0.00 | 89 | 1025.0 |
| 20260509154707 | 13 | 310 | 0.0 | 0.0 | 0.00 | 0.00 | 0.00 | 88 | 1024.9 |
| 20260509153726 | 13 | 304 | 0.0 | 4.8 | 0.00 | 0.00 | 0.00 | 88 | 1024.9 |
| 20260509152707 | 13 | 307 | 0.0 | 4.8 | 0.00 | 0.00 | 0.00 | 87 | 1025.0 |
| 20260509151656 | 13 | 327 | 0.0 | 6.4 | 0.00 | 0.00 | 0.00 | 87 | 1025.0 |
| 20260509150621 | 13 | 335 | 0.0 | 3.2 | 0.00 | 0.00 | 0.00 | 87 | 1025.0 |
| 20260509145623 | 13 | 309 | 0.0 | 6.4 | 0.00 | 0.00 | 0.00 | 87 | 1024.9 |
| 20260509144643 | 14 | 316 | 0.0 | 3.2 | 0.00 | 0.00 | 0.00 | 86 | 1024.8 |
| 20260509143703 | 14 | 314 | 0.0 | 4.8 | 0.00 | 0.00 | 0.00 | 86 | 1024.8 |
| 20260509142630 | 14 | 316 | 0.0 | 4.8 | 0.00 | 0.00 | 0.00 | 85 | 1024.9 |
| 20260509141602 | 15 | 310 | 0.0 | 6.4 | 0.00 | 0.00 | 0.00 | 84 | 1024.8 |
| 20260509140536 | 15 | 259 | 0.0 | 6.4 | 0.00 | 0.00 | 0.00 | 86 | 1024.8 |
| 20260509135504 | 14 | 313 | 0.0 | 1.6 | 0.00 | 0.00 | 0.00 | 84 | 1024.8 |
| 20260509133328 | 15 | 327 | 0.0 | 1.6 | 0.00 | 0.00 | 0.00 | 83 | 1025.0 |
| 20260509132310 | 15 | 317 | 0.0 | 1.6 | 0.00 | 0.00 | 0.00 | 83 | 1025.0 |
| 20260509131243 | 15 | 317 | 0.0 | 0.0 | 0.00 | 0.00 | 0.00 | 82 | 1025.0 |
| 20260509130236 | 15 | 314 | 0.0 | 1.6 | 0.00 | 0.00 | 0.00 | 82 | 1025.0 |
| 20260509125213 | 15 | 314 | 0.0 | 3.2 | 0.00 | 0.00 | 0.00 | 81 | 1025.0 |
| 20260509124146 | 16 | 304 | 0.0 | 0.0 | 0.00 | 0.00 | 0.00 | 81 | 1024.9 |
| 20260509123149 | 16 | 302 | 0.0 | 3.2 | 0.00 | 0.00 | 0.00 | 80 | 1024.9 |
| 20260509122209 | 17 | 300 | 0.0 | 0.0 | 0.00 | 0.00 | 0.00 | 79 | 1025.0 |
| 20260509121214 | 17 | 233 | 0.0 | 4.8 | 0.00 | 0.00 | 0.00 | 80 | 1025.0 |